Prévision chaque heure sur Domdidier


  Conditions Température Point de rosée PrécipitationProbabilité d'orage Vent Pression UV Index Couverture nuageuse Visibilité
 07:33     19:08   La longueur du jour: 11:35 Aujourd'hui
02:00 13 °
Sensation de: 13.3°
11.6°   0%
0
Max: 5 km/h
1025.0 hPa   87% 17 km
03:00 13 °
Sensation de: 12.3°
11.2°   0%
1
Max: 5 km/h
1025.0 hPa   83% 16 km
04:00 13 °
Sensation de: 11.8°
11.0° 0.3 mm 0%
1
Max: 6 km/h
1024.6 hPa   75% 15 km
05:00 13 °
Sensation de: 10.4°
10.6°   0%
2
Max: 7 km/h
1024.2 hPa   65% 16 km
06:00 12 °
Sensation de: 9.8°
10.0°   0%
2
Max: 9 km/h
1024.0 hPa   54% 16 km
07:00 12 °
Sensation de: 8.3°
9.5°   0%
3
Max: 10 km/h
1024.2 hPa   44% 16 km
08:00 11 °
Sensation de: 7.0°
9.0°   0%
4
Max: 12 km/h
1024.6 hPa   34% 16 km
09:00 12 °
Sensation de: 7.8°
9.3°   0%
5
Max: 15 km/h
1025.0 hPa   27% 16 km
10:00 14 °
Sensation de: 10.2°
10.1°   0%
6
Max: 20 km/h
1024.6 hPa 23% 16 km
11:00 17 °
Sensation de: 13.0°
10.8°   0%
8
Max: 25 km/h
1024.2 hPa 20% 17 km
12:00 19 °
Sensation de: 15.8°
11.1°   0%
8
Max: 26 km/h
1023.8 hPa 16% 17 km
13:00 20 °
Sensation de: 17.4°
11.0°   0%
8
Max: 26 km/h
1023.4 hPa 13% 18 km
14:00 21 °
Sensation de: 17.9°
10.9°   0%
9
Max: 27 km/h
1022.8 hPa 9% 18 km
15:00 22 °
Sensation de: 18.8°
10.8°   0%
9
Max: 28 km/h
1022.4 hPa 47% 18 km
16:00 22 °
Sensation de: 18.6°
10.7°   0%
10
Max: 28 km/h
1022.0 hPa 77% 19 km
17:00 22 °
Sensation de: 18.6°
10.7°   0%
9
Max: 27 km/h
1022.2 hPa 96% 19 km
18:00 21 °
Sensation de: 17.1°
10.7°   0%
9
Max: 27 km/h
1022.6 hPa   88% 19 km
19:00 18 °
Sensation de: 14.6°
10.8°   0%
8
Max: 25 km/h
1023.0 hPa   63% 19 km
20:00 16 °
Sensation de: 11.6°
10.8°   0%
7
Max: 21 km/h
1023.0 hPa   28% 19 km
21:00 14 °
Sensation de: 8.7°
10.5°   0%
7
Max: 18 km/h
1023.0 hPa   29% 19 km
22:00 13 °
Sensation de: 7.1°
10.2°   0%
7
Max: 17 km/h
1023.0 hPa   51% 18 km
23:00 12 °
Sensation de: 6.1°
9.8°   0%
7
Max: 17 km/h
1023.0 hPa   73% 18 km
 07:34     19:06   La longueur du jour: 11:32 Demain
00:00 12 °
Sensation de: 6.1°
9.6°   0%
6
Max: 16 km/h
1023.0 hPa   79% 18 km
01:00 11 °
Sensation de: 6.4°
9.2°   0%
5
Max: 14 km/h
1023.0 hPa   85% 18 km
02:00 11 °
Sensation de: 6.6°
8.8°   0%
4
Max: 12 km/h
1023.0 hPa   90% 18 km
03:00 11 °
Sensation de: 6.9°
8.5°   0%
3
Max: 11 km/h
1023.0 hPa   93% 18 km
04:00 10 °
Sensation de: 7.1°
8.1°   0%
2
Max: 9 km/h
1023.0 hPa   96% 17 km
05:00 10 °
Sensation de: 7.0°
7.8°   0%
2
Max: 8 km/h
1022.6 hPa   99% 17 km
06:00 10 °
Sensation de: 7.3°
7.5°   0%
1
Max: 6 km/h
1022.2 hPa   90% 17 km
07:00 10 °
Sensation de: 6.8°
7.1°   0%
1
Max: 5 km/h
1022.4 hPa   72% 17 km
08:00 9 °
Sensation de: 6.3°
6.7°   0%
1
Max: 5 km/h
1022.8 hPa   52% 17 km
09:00 10 °
Sensation de: 8.6°
7.7°   0%
0
Max: 5 km/h
1022.6 hPa   37% 17 km
10:00 13 °
Sensation de: 11.7°
10.0°   0%
0
Max: 5 km/h
1022.2 hPa 28% 17 km
11:00 15 °
Sensation de: 15.8°
12.4°   0%
1
Max: 8 km/h
1022.0 hPa 19% 16 km
12:00 19 °
Sensation de: 21.0°
13.7°   0%
2
Max: 14 km/h
1021.8 hPa 40% 16 km
13:00 21 °
Sensation de: 23.2°
13.9°   0%
3
Max: 17 km/h
1021.4 hPa 65% 15 km
14:00 22 °
Sensation de: 25.0°
13.8°   0%
3
Max: 19 km/h
1021.0 hPa 89% 15 km
15:00 23 °
Sensation de: 25.2°
13.7°   0%
4
Max: 21 km/h
1020.6 hPa 75% 16 km
16:00 23 °
Sensation de: 25.1°
13.5°   0%
5
Max: 21 km/h
1020.4 hPa 47% 16 km
17:00 23 °
Sensation de: 24.2°
13.3°   0%
5
Max: 21 km/h
1020.6 hPa 19% 16 km
18:00 21 °
Sensation de: 22.4°
13.2°   0%
4
Max: 20 km/h
1021.2 hPa   11% 16 km
19:00 18 °
Sensation de: 19.4°
13.1°   0%
2
Max: 14 km/h
1021.6 hPa   19% 16 km
20:00 15 °
Sensation de: 15.9°
12.5°   0%
1
Max: 7 km/h
1022.2 hPa   27% 16 km
21:00 14 °
Sensation de: 13.9°
11.6°   0%
0
Max: 5 km/h
1022.6 hPa   42% 15 km
22:00 13 °
Sensation de: 12.2°
10.7°   0%
0
Max: 5 km/h
1023.0 hPa   57% 15 km
23:00 12 °
Sensation de: 11.0°
10.0°   0%
0
Max: 5 km/h
1023.0 hPa   72% 15 km
 07:36     19:04   La longueur du jour: 11:28 Mercredi 05 Oct
00:00 12 °
Sensation de: 10.3°
9.4°   0%
0
Max: 5 km/h
1023.2 hPa   77% 15 km
01:00 11 °
Sensation de: 9.5°
8.8°   0%
0
Max: 5 km/h
1023.6 hPa   82% 15 km